Location: Centerville
(32.8776°N, 96.6203°W)
Time: 00:57:20
(UTC+00:00)

Cosmos 1315 Rocket - Pass Details

Date: 17 June 2021
Orbit: 528 x 568 km, 81.2° (Epoch: 27 July)

Event Time Altitude Azimuth Distance (km) Brightness Sun altitude
Rises 02:45:10 0° 3° (N) 2,771 6.9 -12.7°
Reaches altitude 10° 02:47:34 10° 14° (NNE) 1,869 5.9 -13.1°
Maximum altitude 02:51:15 31° 78° (ENE) 996 3.8 -13.7°
Enters shadow 02:52:55 23° 119° (ESE) 1,220 4.0 -14.0°
